Find Starlink 4049

NORAD ID: 52840 Int'l Des: 2022-062 Owner: SPXS Country: US Constellation: starlink operational
LEOCIRCULAR

リアルタイム位置

3D地球を読み込み中...

Starlink 4049について

説明を読み込み中...

次回通過

Passes for default location (London). Set your location on the main map for personalized predictions.

高度履歴

Loading altitude history...

軌道要素

1 52840U 22062L 26124.26606998 .00002908 00000-0 12696-3 0 9998
2 52840 53.2154 141.2920 0000778 57.8427 302.2648 15.25394112214224
Epoch: May 4, 2026 • Age: 11 hours

現在のステータス

高度 508.4 km
速度 7.61 km/s
衛星直下点 -52.98°S, 59.17°W
打ち上げ日 Jun 17, 2022
運用期間 3.8 years
タイプ internet

技術仕様

分類 Payload
質量 297.00 kg
乾燥質量 275.00 kg
総質量 297.00 kg
長さ 0.20 m
直径 2.80 m
スパン 9.00 m
形状 Box + pan
製造者 SPXS
バスタイプ Starlink
フェーズステータス In Orbit
所有者/国 SPXS/US

Most Searched